{"data":{"norad_id":67271,"intl_designator":"2025-313Z","name":"2025-313Z","alt_names":[],"object_type":"PAYLOAD","status":"ACTIVE","operator":null,"country":"TBD","launch_date":"2025-12-28","launch_site_code":"VOSTO","launch_vehicle":null,"mission":null,"orbit_class":"UNKNOWN","rcs_meters":null,"size_class":null,"mass_kg":null,"dimensions":null,"purposes":[],"wikipedia_slug":null,"has_3d_model":false,"image_url":null,"decayed_at":null,"tle_current":{"epoch":"2026-09-20T19:42:03.931776Z","epoch_age_seconds":75279,"freshness":"FRESH","line1":"1 67271U 25313Z   26263.82087884  .00002636  00000+0  11734-3 0  9996","line2":"2 67271  97.3859 336.5986 0015433  32.1558 328.0616 15.22244957 40489","mean_motion":15.22244957,"eccentricity":0.0015433,"inclination_deg":97.3859,"raan_deg":336.5986,"arg_perigee_deg":32.1558,"mean_anomaly_deg":328.0616,"bstar":0.00011734,"rev_number":4048,"period_min":94.597127313722,"perigee_km":488.45717785204,"apogee_km":509.68436736298,"semimajor_km":6877.2077726075,"source":"CELESTRAK","updated_at":"2026-09-21T09:00:16.543644Z"}}}